• în România
  • Lista ţărilor
  • Pe 7 zile
  • Temperatura apei
  • Hartă satelitară
  • Meteo pe hartă
  • Widget-uri
  • user-avatar
    Intrare

    Meteo pe oră la Kayrakovo

    Astăzi, 19 August, Duminică

    Timp Temperatura Precipitaţii Vânt Presiune Umiditate
    00:00 +8°C° 0 mm 3 m/s 756 mmHg 87%
    01:00 +8°C° 0 mm 3 m/s 756 mmHg 87%
    02:00 +8°C° 0 mm 3 m/s 756 mmHg 89%
    03:00 +7°C° 0 mm 3 m/s 756 mmHg 90%
    04:00 +7°C° 0 mm 2 m/s 756 mmHg 91%
    05:00 +8°C° 0 mm 3 m/s 756 mmHg 89%
    06:00 +8°C° 0 mm 3 m/s 756 mmHg 86%
    07:00 +9°C° 0 mm 3 m/s 756 mmHg 83%
    08:00 +11°C° 0 mm 3 m/s 756 mmHg 78%
    09:00 +13°C° 0 mm 3 m/s 756 mmHg 72%
    10:00 +16°C° 0 mm 3 m/s 756 mmHg 67%
    11:00 +17°C° 0 mm 3 m/s 755 mmHg 64%
    12:00 +18°C° 0 mm 3 m/s 755 mmHg 60%
    13:00 +19°C° 0 mm 3 m/s 755 mmHg 56%
    14:00 +19°C° 0 mm 3 m/s 755 mmHg 57%
    15:00 +19°C° 0 mm 3 m/s 755 mmHg 57%
    16:00 +19°C° 0 mm 3 m/s 754 mmHg 58%
    17:00 +18°C° 0 mm 3 m/s 754 mmHg 64%
    18:00 +16°C° 0 mm 3 m/s 754 mmHg 70%
    19:00 +15°C° 0 mm 2 m/s 754 mmHg 76%
    20:00 +14°C° 0 mm 2 m/s 754 mmHg 79%
    21:00 +13°C° 0 mm 2 m/s 754 mmHg 82%
    22:00 +12°C° 0 mm 2 m/s 754 mmHg 85%
    23:00 +10°C° 0 mm 2 m/s 754 mmHg 86%

    Mâine, 20 August, Luni

    Timp Temperatura Precipitaţii Vânt Presiune Umiditate
    00:00 +11°C° 0 mm 1 m/s 754 mmHg 87%
    01:00 +10°C° 0 mm 1 m/s 754 mmHg 88%
    02:00 +10°C° 0 mm 1 m/s 754 mmHg 89%
    03:00 +10°C° 0 mm 1 m/s 754 mmHg 89%
    04:00 +9°C° 0 mm 1 m/s 754 mmHg 90%
    05:00 +10°C° 0 mm 1 m/s 754 mmHg 87%
    06:00 +11°C° 0 mm 1 m/s 754 mmHg 84%
    07:00 +12°C° 0 mm 1 m/s 754 mmHg 82%
    08:00 +14°C° 0 mm 1 m/s 754 mmHg 76%
    09:00 +16°C° 0 mm 1 m/s 754 mmHg 70%
    10:00 +18°C° 0 mm 1 m/s 753 mmHg 64%
    11:00 +18°C° 0 mm 2 m/s 753 mmHg 60%
    12:00 +19°C° 0 mm 2 m/s 753 mmHg 57%
    13:00 +20°C° 0 mm 2 m/s 753 mmHg 54%
    14:00 +20°C° 0 mm 2 m/s 752 mmHg 55%
    15:00 +20°C° 0 mm 2 m/s 752 mmHg 56%
    16:00 +20°C° 0 mm 3 m/s 752 mmHg 58%
    17:00 +19°C° 0 mm 2 m/s 752 mmHg 64%
    18:00 +18°C° 0 mm 2 m/s 751 mmHg 69%
    19:00 +18°C° 0 mm 1 m/s 751 mmHg 75%
    20:00 +16°C° 0 mm 1 m/s 751 mmHg 79%
    21:00 +15°C° 0 mm 2 m/s 751 mmHg 82%
    22:00 +14°C° 0 mm 2 m/s 751 mmHg 86%
    23:00 +14°C° 0 mm 2 m/s 751 mmHg 86%

    Poimâine, 21 August, Marţi

    Timp Temperatura Precipitaţii Vânt Presiune Umiditate
    00:00 +14°C° 0 mm 2 m/s 751 mmHg 86%
    01:00 +14°C° 0 mm 2 m/s 750 mmHg 86%
    02:00 +13°C° 0 mm 3 m/s 750 mmHg 88%
    03:00 +13°C° 0 mm 3 m/s 750 mmHg 90%
    04:00 +13°C° 0 mm 3 m/s 750 mmHg 92%
    05:00 +13°C° 0,1 mm 3 m/s 749 mmHg 92%
    06:00 +14°C° 0,1 mm 3 m/s 749 mmHg 92%
    07:00 +14°C° 0,1 mm 3 m/s 749 mmHg 93%
    08:00 +16°C° 0,1 mm 3 m/s 749 mmHg 91%
    09:00 +17°C° 0,1 mm 3 m/s 749 mmHg 90%
    10:00 +18°C° 0,1 mm 3 m/s 749 mmHg 89%
    11:00 +19°C° 0 mm 3 m/s 749 mmHg 87%
    12:00 +19°C° 0 mm 3 m/s 748 mmHg 84%
    13:00 +20°C° 0 mm 3 m/s 748 mmHg 82%
    14:00 +21°C° 0 mm 2 m/s 748 mmHg 80%
    15:00 +21°C° 0 mm 2 m/s 748 mmHg 77%
    16:00 +23°C° 0 mm 2 m/s 748 mmHg 75%
    17:00 +21°C° 0 mm 2 m/s 748 mmHg 78%
    18:00 +21°C° 0 mm 1 m/s 747 mmHg 82%
    19:00 +21°C° 0 mm 1 m/s 747 mmHg 85%
    20:00 +20°C° 0,3 mm 1 m/s 747 mmHg 88%
    21:00 +18°C° 0,3 mm 2 m/s 747 mmHg 91%
    22:00 +17°C° 0,3 mm 2 m/s 747 mmHg 93%
    23:00 +17°C° 0,1 mm 2 m/s 746 mmHg 94%

    22 August, Miercuri

    Timp Temperatura Precipitaţii Vânt Presiune Umiditate
    00:00 +17°C° 0,1 mm 3 m/s 746 mmHg 94%
    01:00 +17°C° 0,1 mm 3 m/s 746 mmHg 94%
    02:00 +17°C° 0 mm 3 m/s 746 mmHg 94%
    03:00 +16°C° 0 mm 3 m/s 745 mmHg 93%
    04:00 +16°C° 0 mm 3 m/s 745 mmHg 93%
    05:00 +17°C° 0 mm 3 m/s 745 mmHg 91%
    06:00 +17°C° 0 mm 3 m/s 745 mmHg 89%
    07:00 +17°C° 0 mm 4 m/s 745 mmHg 87%
    08:00 +19°C° 0 mm 4 m/s 744 mmHg 82%
    09:00 +20°C° 0 mm 4 m/s 744 mmHg 76%
    10:00 +22°C° 0 mm 5 m/s 744 mmHg 71%
    11:00 +23°C° 0,1 mm 5 m/s 744 mmHg 69%
    12:00 +23°C° 0,1 mm 6 m/s 744 mmHg 68%
    13:00 +24°C° 0,1 mm 7 m/s 744 mmHg 66%
    14:00 +22°C° 0,8 mm 6 m/s 744 mmHg 73%
    15:00 +21°C° 0,8 mm 6 m/s 744 mmHg 79%
    16:00 +20°C° 0,8 mm 5 m/s 744 mmHg 86%
    17:00 +19°C° 0,7 mm 5 m/s 744 mmHg 88%
    18:00 +18°C° 0,7 mm 4 m/s 744 mmHg 91%
    19:00 +17°C° 0,7 mm 4 m/s 745 mmHg 93%
    20:00 +16°C° 0,1 mm 3 m/s 745 mmHg 93%
    21:00 +14°C° 0,1 mm 3 m/s 745 mmHg 93%
    22:00 +14°C° 0,1 mm 2 m/s 745 mmHg 94%
    23:00 +13°C° 0 mm 2 m/s 746 mmHg 94%

    23 August, Joi

    Timp Temperatura Precipitaţii Vânt Presiune Umiditate
    00:00 +13°C° 0 mm 2 m/s 746 mmHg 94%
    01:00 +12°C° 0 mm 2 m/s 746 mmHg 94%
    02:00 +12°C° 0,1 mm 2 m/s 747 mmHg 94%
    03:00 +10°C° 0,1 mm 2 m/s 747 mmHg 94%
    04:00 +10°C° 0,1 mm 2 m/s 747 mmHg 95%
    05:00 +10°C° 0 mm 3 m/s 748 mmHg 93%
    06:00 +10°C° 0 mm 3 m/s 748 mmHg 91%
    07:00 +11°C° 0 mm 4 m/s 749 mmHg 89%
    08:00 +12°C° 0 mm 4 m/s 749 mmHg 82%
    09:00 +13°C° 0 mm 5 m/s 749 mmHg 75%
    10:00 +14°C° 0 mm 5 m/s 750 mmHg 68%
    11:00 +15°C° 0 mm 5 m/s 750 mmHg 65%
    12:00 +15°C° 0 mm 5 m/s 750 mmHg 62%
    13:00 +16°C° 0 mm 6 m/s 750 mmHg 60%
    14:00 +16°C° 0,1 mm 6 m/s 750 mmHg 60%
    15:00 +16°C° 0,1 mm 6 m/s 750 mmHg 60%
    16:00 +16°C° 0,1 mm 6 m/s 751 mmHg 60%
    17:00 +15°C° 0 mm 5 m/s 751 mmHg 64%
    18:00 +13°C° 0 mm 5 m/s 751 mmHg 69%
    19:00 +12°C° 0 mm 4 m/s 752 mmHg 73%
    20:00 +11°C° 0 mm 4 m/s 752 mmHg 76%
    21:00 +10°C° 0 mm 3 m/s 752 mmHg 78%
    22:00 +9°C° 0 mm 3 m/s 752 mmHg 81%
    23:00 +9°C° 0 mm 3 m/s 752 mmHg 81%

    24 August, Vineri

    Timp Temperatura Precipitaţii Vânt Presiune Umiditate
    00:00 +9°C° 0 mm 3 m/s 752 mmHg 80%
    01:00 +9°C° 0 mm 3 m/s 753 mmHg 80%
    02:00 +10°C° 0 mm 3 m/s 753 mmHg 78%
    03:00 +10°C° 0 mm 3 m/s 753 mmHg 76%
    04:00 +10°C° 0 mm 3 m/s 753 mmHg 75%
    05:00 +11°C° 0 mm 3 m/s 752 mmHg 76%
    06:00 +11°C° 0 mm 3 m/s 752 mmHg 78%
    07:00 +11°C° 0 mm 3 m/s 752 mmHg 79%
    08:00 +11°C° 0,3 mm 4 m/s 752 mmHg 83%
    09:00 +11°C° 0,3 mm 4 m/s 752 mmHg 86%
    10:00 +11°C° 0,3 mm 4 m/s 752 mmHg 89%
    11:00 +11°C° 0,3 mm 4 m/s 752 mmHg 90%
    12:00 +12°C° 0,3 mm 4 m/s 752 mmHg 92%
    13:00 +12°C° 0,3 mm 4 m/s 751 mmHg 93%
    14:00 +13°C° 0 mm 4 m/s 751 mmHg 92%
    15:00 +13°C° 0 mm 4 m/s 751 mmHg 90%
    16:00 +14°C° 0 mm 4 m/s 751 mmHg 89%
    17:00 +14°C° 0,1 mm 4 m/s 752 mmHg 90%
    18:00 +14°C° 0,1 mm 3 m/s 752 mmHg 91%
    19:00 +14°C° 0,1 mm 3 m/s 752 mmHg 93%
    20:00 +14°C° 0,1 mm 2 m/s 752 mmHg 94%
    21:00 +14°C° 0,1 mm 2 m/s 752 mmHg 95%
    22:00 +13°C° 0,1 mm 2 m/s 752 mmHg 96%
    23:00 +13°C° 0 mm 2 m/s 752 mmHg 96%
    Arată mai mult